• In Hungary
  • List of Countries
  • For 7 days
  • Water Temperature
  • Satellite Maps
  • Weather Map
  • News
  • Weather Widgets
  • user-avatar
    Login

    Hourly Weather Horodys'ko

    Today, 23 October, Monday

    Time Temperature Precipitation Wind Pressure Humidity
    00:00 +10°C° 0.5 mm 1 mps 736 mmHg 92%
    01:00 +10°C° 0.5 mm 1 mps 736 mmHg 93%
    02:00 +10°C° 0.5 mm 1 mps 736 mmHg 94%
    03:00 +9°C° 0.7 mm 1 mps 735 mmHg 94%
    04:00 +9°C° 0.7 mm 1 mps 735 mmHg 95%
    05:00 +9°C° 0.7 mm 1 mps 734 mmHg 95%
    06:00 +9°C° 0.8 mm 1 mps 734 mmHg 95%
    07:00 +8°C° 0.8 mm 2 mps 734 mmHg 95%
    08:00 +8°C° 0.8 mm 2 mps 734 mmHg 95%
    09:00 +8°C° 0.9 mm 2 mps 734 mmHg 94%
    10:00 +8°C° 0.9 mm 2 mps 734 mmHg 93%
    11:00 +8°C° 0.9 mm 3 mps 733 mmHg 91%
    12:00 +8°C° 0.8 mm 3 mps 733 mmHg 91%
    13:00 +8°C° 0.8 mm 3 mps 733 mmHg 90%
    14:00 +8°C° 0.8 mm 3 mps 733 mmHg 90%
    15:00 +8°C° 0.8 mm 3 mps 733 mmHg 91%
    16:00 +8°C° 0.8 mm 3 mps 734 mmHg 92%
    17:00 +7°C° 0.8 mm 3 mps 734 mmHg 93%
    18:00 +7°C° 0.5 mm 3 mps 734 mmHg 93%
    19:00 +7°C° 0.5 mm 3 mps 734 mmHg 93%
    20:00 +7°C° 0.5 mm 3 mps 735 mmHg 94%
    21:00 +7°C° 0.3 mm 3 mps 735 mmHg 94%
    22:00 +7°C° 0.3 mm 3 mps 735 mmHg 94%
    23:00 +5°C° 0.3 mm 3 mps 736 mmHg 94%

    Tomorrow, 24 October, Tuesday

    Time Temperature Precipitation Wind Pressure Humidity
    00:00 +5°C° 0.1 mm 3 mps 736 mmHg 94%
    01:00 +5°C° 0.1 mm 3 mps 737 mmHg 93%
    02:00 +5°C° 0.1 mm 3 mps 737 mmHg 93%
    03:00 +5°C° 0.1 mm 4 mps 737 mmHg 93%
    04:00 +5°C° 0.1 mm 4 mps 738 mmHg 93%
    05:00 +5°C° 0.1 mm 4 mps 738 mmHg 93%
    06:00 +5°C° 0.1 mm 4 mps 739 mmHg 93%
    07:00 +5°C° 0.1 mm 4 mps 739 mmHg 92%
    08:00 +5°C° 0.1 mm 4 mps 740 mmHg 92%
    09:00 +5°C° 0.1 mm 4 mps 740 mmHg 91%
    10:00 +5°C° 0.1 mm 4 mps 741 mmHg 90%
    11:00 +5°C° 0.1 mm 4 mps 742 mmHg 89%
    12:00 +5°C° 0 mm 4 mps 742 mmHg 87%
    13:00 +5°C° 0 mm 4 mps 742 mmHg 85%
    14:00 +6°C° 0 mm 4 mps 742 mmHg 83%
    15:00 +5°C° 0 mm 4 mps 743 mmHg 84%
    16:00 +5°C° 0 mm 3 mps 743 mmHg 84%
    17:00 +5°C° 0 mm 3 mps 743 mmHg 84%
    18:00 +5°C° 0 mm 3 mps 744 mmHg 85%
    19:00 +4°C° 0 mm 3 mps 744 mmHg 86%
    20:00 +4°C° 0 mm 3 mps 745 mmHg 87%
    21:00 +3°C° 0 mm 3 mps 745 mmHg 89%
    22:00 +4°C° 0 mm 2 mps 746 mmHg 90%
    23:00 +3°C° 0 mm 2 mps 746 mmHg 91%

    Day after tomorrow, 25 October, Wednesday

    Time Temperature Precipitation Wind Pressure Humidity
    00:00 +3°C° 0 mm 2 mps 746 mmHg 92%
    01:00 +2°C° 0 mm 2 mps 746 mmHg 92%
    02:00 +3°C° 0 mm 1 mps 746 mmHg 93%
    03:00 +3°C° 0 mm 1 mps 746 mmHg 93%
    04:00 +3°C° 0 mm 1 mps 746 mmHg 93%
    05:00 +2°C° 0 mm 1 mps 746 mmHg 93%
    06:00 +1°C° 0 mm 2 mps 746 mmHg 93%
    07:00 +2°C° 0 mm 2 mps 746 mmHg 92%
    08:00 +2°C° 0 mm 2 mps 746 mmHg 92%
    09:00 +3°C° 0 mm 2 mps 746 mmHg 86%
    10:00 +5°C° 0 mm 2 mps 746 mmHg 80%
    11:00 +7°C° 0 mm 3 mps 746 mmHg 74%
    12:00 +7°C° 0 mm 3 mps 746 mmHg 72%
    13:00 +8°C° 0 mm 3 mps 745 mmHg 70%
    14:00 +9°C° 0 mm 2 mps 745 mmHg 68%
    15:00 +8°C° 0 mm 2 mps 745 mmHg 72%
    16:00 +8°C° 0 mm 2 mps 744 mmHg 76%
    17:00 +7°C° 0 mm 2 mps 744 mmHg 80%
    18:00 +7°C° 0 mm 2 mps 744 mmHg 80%
    19:00 +7°C° 0 mm 2 mps 744 mmHg 79%
    20:00 +7°C° 0 mm 2 mps 744 mmHg 79%
    21:00 +8°C° 0 mm 3 mps 744 mmHg 77%
    22:00 +8°C° 0 mm 3 mps 744 mmHg 74%
    23:00 +9°C° 0 mm 3 mps 744 mmHg 72%

    26 October, Thursday

    Time Temperature Precipitation Wind Pressure Humidity
    00:00 +8°C° 0.1 mm 4 mps 744 mmHg 73%
    01:00 +8°C° 0.1 mm 4 mps 743 mmHg 73%
    02:00 +8°C° 0.1 mm 5 mps 743 mmHg 74%
    03:00 +8°C° 0.3 mm 5 mps 743 mmHg 76%
    04:00 +8°C° 0.3 mm 5 mps 743 mmHg 79%
    05:00 +8°C° 0.3 mm 5 mps 743 mmHg 81%
    06:00 +8°C° 0.4 mm 5 mps 743 mmHg 82%
    07:00 +8°C° 0.4 mm 5 mps 743 mmHg 83%
    08:00 +8°C° 0.4 mm 4 mps 743 mmHg 84%
    09:00 +10°C° 0.1 mm 4 mps 743 mmHg 84%
    10:00 +10°C° 0.1 mm 4 mps 743 mmHg 83%
    11:00 +10°C° 0.1 mm 4 mps 743 mmHg 82%
    12:00 +11°C° 0 mm 4 mps 743 mmHg 80%
    13:00 +12°C° 0 mm 4 mps 743 mmHg 79%
    14:00 +13°C° 0 mm 5 mps 742 mmHg 77%
    15:00 +12°C° 0 mm 5 mps 742 mmHg 78%
    16:00 +10°C° 0 mm 5 mps 741 mmHg 80%
    17:00 +10°C° 0 mm 5 mps 740 mmHg 81%
    18:00 +10°C° 0 mm 6 mps 740 mmHg 81%
    19:00 +10°C° 0 mm 6 mps 740 mmHg 81%
    20:00 +10°C° 0 mm 7 mps 739 mmHg 82%
    21:00 +10°C° 0 mm 6 mps 739 mmHg 83%
    22:00 +10°C° 0 mm 6 mps 739 mmHg 84%
    23:00 +10°C° 0 mm 5 mps 738 mmHg 85%

    27 October, Friday

    Time Temperature Precipitation Wind Pressure Humidity
    00:00 +10°C° 0 mm 5 mps 738 mmHg 86%
    01:00 +10°C° 0 mm 5 mps 738 mmHg 87%
    02:00 +10°C° 0 mm 5 mps 738 mmHg 88%
    03:00 +10°C° 0 mm 5 mps 737 mmHg 89%
    04:00 +11°C° 0 mm 4 mps 737 mmHg 89%
    05:00 +11°C° 0 mm 4 mps 736 mmHg 90%
    06:00 +11°C° 0.2 mm 4 mps 736 mmHg 90%
    07:00 +11°C° 0.2 mm 4 mps 735 mmHg 89%
    08:00 +11°C° 0.2 mm 4 mps 735 mmHg 88%
    09:00 +12°C° 0.2 mm 4 mps 734 mmHg 84%
    10:00 +12°C° 0.2 mm 5 mps 734 mmHg 80%
    11:00 +13°C° 0.2 mm 6 mps 733 mmHg 77%
    12:00 +13°C° 0.1 mm 6 mps 732 mmHg 75%
    13:00 +13°C° 0.1 mm 6 mps 731 mmHg 74%
    14:00 +14°C° 0.1 mm 6 mps 731 mmHg 73%
    15:00 +13°C° 0.5 mm 6 mps 730 mmHg 76%
    16:00 +11°C° 0.5 mm 6 mps 730 mmHg 79%
    17:00 +12°C° 0.5 mm 5 mps 730 mmHg 82%
    18:00 +9°C° 0.9 mm 5 mps 730 mmHg 84%
    19:00 +8°C° 0.9 mm 5 mps 731 mmHg 86%
    20:00 +7°C° 0.9 mm 6 mps 731 mmHg 87%
    21:00 +7°C° 0.3 mm 6 mps 732 mmHg 87%
    22:00 +7°C° 0.3 mm 6 mps 732 mmHg 86%
    23:00 +7°C° 0.3 mm 6 mps 732 mmHg 86%

    28 October, Saturday

    Time Temperature Precipitation Wind Pressure Humidity
    00:00 +7°C° 0.1 mm 6 mps 732 mmHg 86%
    01:00 +7°C° 0.1 mm 5 mps 732 mmHg 87%
    02:00 +7°C° 0.1 mm 5 mps 732 mmHg 88%
    03:00 +7°C° 0.3 mm 5 mps 732 mmHg 88%
    04:00 +7°C° 0.3 mm 5 mps 732 mmHg 88%
    05:00 +7°C° 0.3 mm 5 mps 732 mmHg 88%
    06:00 +7°C° 0.2 mm 5 mps 732 mmHg 86%
    07:00 +7°C° 0.2 mm 5 mps 732 mmHg 85%
    08:00 +6°C° 0.2 mm 5 mps 731 mmHg 83%
    09:00 +7°C° 0.1 mm 6 mps 731 mmHg 81%
    10:00 +7°C° 0.1 mm 6 mps 731 mmHg 78%
    11:00 +7°C° 0.1 mm 6 mps 730 mmHg 75%
    12:00 +6°C° 0.4 mm 7 mps 729 mmHg 76%
    13:00 +6°C° 0.4 mm 7 mps 728 mmHg 76%
    14:00 +7°C° 0.4 mm 8 mps 727 mmHg 76%
    15:00 +6°C° 0.2 mm 7 mps 726 mmHg 76%
    16:00 +6°C° 0.2 mm 7 mps 726 mmHg 76%
    17:00 +6°C° 0.2 mm 7 mps 725 mmHg 75%
    18:00 +6°C° 0.4 mm 7 mps 724 mmHg 76%
    19:00 +6°C° 0.4 mm 8 mps 724 mmHg 76%
    20:00 +6°C° 0.4 mm 8 mps 724 mmHg 77%
    21:00 +6°C° 0 mm 8 mps 723 mmHg 77%
    22:00 +6°C° 0 mm 8 mps 723 mmHg 77%
    23:00 +6°C° 0 mm 8 mps 722 mmHg 76%
    Show more